Year,Month,Day,Hour,Minute,Value (Times are PST for temperature in C)
2018,09,14,00,00,12.40
2018,09,14,00,01,12.40
2018,09,14,00,02,12.40
2018,09,14,00,03,12.40
2018,09,14,00,04,12.40
2018,09,14,00,05,12.40
2018,09,14,00,06,12.40
2018,09,14,00,07,12.40
2018,09,14,00,08,12.50
2018,09,14,00,09,12.40
2018,09,14,00,10,12.40
2018,09,14,00,11,12.40
2018,09,14,00,12,12.40
2018,09,14,00,13,12.50
2018,09,14,00,14,12.50
2018,09,14,00,15,12.50
2018,09,14,00,16,12.50
2018,09,14,00,17,12.50
2018,09,14,00,18,12.50
2018,09,14,00,19,12.50
2018,09,14,00,20,12.50
2018,09,14,00,21,12.50
2018,09,14,00,22,12.50
2018,09,14,00,23,12.50
2018,09,14,00,24,12.50
2018,09,14,00,25,12.50
2018,09,14,00,26,12.50
2018,09,14,00,27,12.50
2018,09,14,00,28,12.50
2018,09,14,00,29,12.50
2018,09,14,00,30,12.50
2018,09,14,00,31,12.40
2018,09,14,00,32,12.50
2018,09,14,00,33,12.50
2018,09,14,00,34,12.40
2018,09,14,00,35,12.40
2018,09,14,00,36,12.40
2018,09,14,00,37,12.40
2018,09,14,00,38,12.40
2018,09,14,00,39,12.40
2018,09,14,00,40,12.40
2018,09,14,00,41,12.40
2018,09,14,00,42,12.40
2018,09,14,00,43,12.40
2018,09,14,00,44,12.40
2018,09,14,00,45,12.40
2018,09,14,00,46,12.30
2018,09,14,00,47,12.30
2018,09,14,00,48,12.30
2018,09,14,00,49,12.30
2018,09,14,00,50,12.30
2018,09,14,00,51,12.30
2018,09,14,00,52,12.30
2018,09,14,00,53,12.30
2018,09,14,00,54,12.30
2018,09,14,00,55,12.30
2018,09,14,00,56,12.30
2018,09,14,00,57,12.30
2018,09,14,00,58,12.30
2018,09,14,00,59,12.30
2018,09,14,01,00,12.20
2018,09,14,01,01,12.20
2018,09,14,01,02,12.20
2018,09,14,01,03,12.20
2018,09,14,01,04,12.20
2018,09,14,01,05,12.10
2018,09,14,01,06,12.10
2018,09,14,01,07,12.10
2018,09,14,01,08,12.10
2018,09,14,01,09,12.10
2018,09,14,01,10,12.10
2018,09,14,01,11,12.00
2018,09,14,01,12,12.00
2018,09,14,01,13,12.00
2018,09,14,01,14,12.00
2018,09,14,01,15,12.00
2018,09,14,01,16,12.00
2018,09,14,01,17,12.00
2018,09,14,01,18,12.00
2018,09,14,01,19,12.00
2018,09,14,01,20,12.00
2018,09,14,01,21,12.00
2018,09,14,01,22,12.00
2018,09,14,01,23,12.00
2018,09,14,01,24,12.00
2018,09,14,01,25,12.00
2018,09,14,01,26,12.00
2018,09,14,01,27,11.90
2018,09,14,01,28,12.00
2018,09,14,01,29,12.00
2018,09,14,01,30,12.00
2018,09,14,01,31,11.90
2018,09,14,01,32,11.90
2018,09,14,01,33,11.90
2018,09,14,01,34,11.90
2018,09,14,01,35,11.90
2018,09,14,01,36,11.90
2018,09,14,01,37,12.00
2018,09,14,01,38,12.00
2018,09,14,01,39,12.00
2018,09,14,01,40,12.00
2018,09,14,01,41,12.00
2018,09,14,01,42,12.00
2018,09,14,01,43,12.00
2018,09,14,01,44,12.00
2018,09,14,01,45,12.00
2018,09,14,01,46,12.00
2018,09,14,01,47,12.00
2018,09,14,01,48,12.00
2018,09,14,01,49,12.00
2018,09,14,01,50,12.00
2018,09,14,01,51,12.00
2018,09,14,01,52,12.00
2018,09,14,01,53,12.10
2018,09,14,01,54,12.10
2018,09,14,01,55,12.10
2018,09,14,01,56,12.10
2018,09,14,01,57,12.10
2018,09,14,01,58,12.10
2018,09,14,01,59,12.10
2018,09,14,02,00,12.10
2018,09,14,02,01,12.10
2018,09,14,02,02,12.00
2018,09,14,02,03,12.10
2018,09,14,02,04,12.00
2018,09,14,02,05,12.00
2018,09,14,02,06,12.00
2018,09,14,02,07,12.00
2018,09,14,02,08,12.00
2018,09,14,02,09,12.10
2018,09,14,02,10,12.10
2018,09,14,02,11,12.10
2018,09,14,02,12,12.10
2018,09,14,02,13,12.10
2018,09,14,02,14,12.10
2018,09,14,02,15,12.10
2018,09,14,02,16,12.00
2018,09,14,02,17,12.00
2018,09,14,02,18,12.00
2018,09,14,02,19,12.00
2018,09,14,02,20,12.00
2018,09,14,02,21,12.00
2018,09,14,02,22,12.00
2018,09,14,02,23,12.00
2018,09,14,02,24,12.00
2018,09,14,02,25,12.00
2018,09,14,02,26,11.90
2018,09,14,02,27,11.90
2018,09,14,02,28,11.90
2018,09,14,02,29,11.90
2018,09,14,02,30,11.90
2018,09,14,02,31,11.90
2018,09,14,02,32,11.90
2018,09,14,02,33,11.90
2018,09,14,02,34,11.90
2018,09,14,02,35,11.90
2018,09,14,02,36,11.90
2018,09,14,02,37,11.90
2018,09,14,02,38,11.90
2018,09,14,02,39,11.90
2018,09,14,02,40,11.90
2018,09,14,02,41,11.90
2018,09,14,02,42,11.90
2018,09,14,02,43,11.80
2018,09,14,02,44,11.80
2018,09,14,02,45,11.80
2018,09,14,02,46,11.80
2018,09,14,02,47,11.80
2018,09,14,02,48,11.80
2018,09,14,02,49,11.80
2018,09,14,02,50,11.80
2018,09,14,02,51,11.80
2018,09,14,02,52,11.80
2018,09,14,02,53,11.80
2018,09,14,02,54,11.70
2018,09,14,02,55,11.70
2018,09,14,02,56,11.70
2018,09,14,02,57,11.70
2018,09,14,02,58,11.70
2018,09,14,02,59,11.70
2018,09,14,03,00,11.70
2018,09,14,03,01,11.70
2018,09,14,03,02,11.70
2018,09,14,03,03,11.70
2018,09,14,03,04,11.70
2018,09,14,03,05,11.70
2018,09,14,03,06,11.70
2018,09,14,03,07,11.70
2018,09,14,03,08,11.70
2018,09,14,03,09,11.70
2018,09,14,03,10,11.70
2018,09,14,03,11,11.70
2018,09,14,03,12,11.70
2018,09,14,03,13,11.70
2018,09,14,03,14,11.70
2018,09,14,03,15,11.70
2018,09,14,03,16,11.70
2018,09,14,03,17,11.70
2018,09,14,03,18,11.70
2018,09,14,03,19,11.70
2018,09,14,03,20,11.70
2018,09,14,03,21,11.70
2018,09,14,03,22,11.70
2018,09,14,03,23,11.70
2018,09,14,03,24,11.70
2018,09,14,03,25,11.70
2018,09,14,03,26,11.70
2018,09,14,03,27,11.70
2018,09,14,03,28,11.70
2018,09,14,03,29,11.70
2018,09,14,03,30,11.70
2018,09,14,03,31,11.60
2018,09,14,03,32,11.60
2018,09,14,03,33,11.60
2018,09,14,03,34,11.60
2018,09,14,03,35,11.60
2018,09,14,03,36,11.60
2018,09,14,03,37,11.60
2018,09,14,03,38,11.60
2018,09,14,03,39,11.70
2018,09,14,03,40,11.70
2018,09,14,03,41,11.70
2018,09,14,03,42,11.70
2018,09,14,03,43,11.60
2018,09,14,03,44,11.60
2018,09,14,03,45,11.60
2018,09,14,03,46,11.60
2018,09,14,03,47,11.60
2018,09,14,03,48,11.60
2018,09,14,03,49,11.60
2018,09,14,03,50,11.60
2018,09,14,03,51,11.60
2018,09,14,03,52,11.60
2018,09,14,03,53,11.60
2018,09,14,03,54,11.60
2018,09,14,03,55,11.60
2018,09,14,03,56,11.60
2018,09,14,03,57,11.60
2018,09,14,03,58,11.60
2018,09,14,03,59,11.60
2018,09,14,04,00,11.60
2018,09,14,04,01,11.50
2018,09,14,04,02,11.50
2018,09,14,04,03,11.50
2018,09,14,04,04,11.50
2018,09,14,04,05,11.50
2018,09,14,04,06,11.50
2018,09,14,04,07,11.50
2018,09,14,04,08,11.50
2018,09,14,04,09,11.50
2018,09,14,04,10,11.50
2018,09,14,04,11,11.50
2018,09,14,04,12,11.50
2018,09,14,04,13,11.50
2018,09,14,04,14,11.50
2018,09,14,04,15,11.50
2018,09,14,04,16,11.50
2018,09,14,04,17,11.40
2018,09,14,04,18,11.50
2018,09,14,04,19,11.50
2018,09,14,04,20,11.40
2018,09,14,04,21,11.40
2018,09,14,04,22,11.40
2018,09,14,04,23,11.40
2018,09,14,04,24,11.40
2018,09,14,04,25,11.40
2018,09,14,04,26,11.40
2018,09,14,04,27,11.40
2018,09,14,04,28,11.40
2018,09,14,04,29,11.40
2018,09,14,04,30,11.40
2018,09,14,04,31,11.40
2018,09,14,04,32,11.40
2018,09,14,04,33,11.40
2018,09,14,04,34,11.40
2018,09,14,04,35,11.40
2018,09,14,04,36,11.40
2018,09,14,04,37,11.40
2018,09,14,04,38,11.40
2018,09,14,04,39,11.40
2018,09,14,04,40,11.40
2018,09,14,04,41,11.30
2018,09,14,04,42,11.30
2018,09,14,04,43,11.30
2018,09,14,04,44,11.30
2018,09,14,04,45,11.30
2018,09,14,04,46,11.30
2018,09,14,04,47,11.30
2018,09,14,04,48,11.30
2018,09,14,04,49,11.30
2018,09,14,04,50,11.30
2018,09,14,04,51,11.30
2018,09,14,04,52,11.30
2018,09,14,04,53,11.20
2018,09,14,04,54,11.20
2018,09,14,04,55,11.20
2018,09,14,04,56,11.20
2018,09,14,04,57,11.20
2018,09,14,04,58,11.20
2018,09,14,04,59,11.20
2018,09,14,05,00,11.20
2018,09,14,05,01,11.20
2018,09,14,05,02,11.20
2018,09,14,05,03,11.20
2018,09,14,05,04,11.20
2018,09,14,05,05,11.20
2018,09,14,05,06,11.10
2018,09,14,05,07,11.10
2018,09,14,05,08,11.10
2018,09,14,05,09,11.10
2018,09,14,05,10,11.10
2018,09,14,05,11,11.10
2018,09,14,05,12,11.10
2018,09,14,05,13,11.10
2018,09,14,05,14,11.10
2018,09,14,05,15,11.10
2018,09,14,05,16,11.10
2018,09,14,05,17,11.10
2018,09,14,05,18,11.10
2018,09,14,05,19,11.10
2018,09,14,05,20,11.10
2018,09,14,05,21,11.10
2018,09,14,05,22,11.10
2018,09,14,07,57,10.90
2018,09,14,07,58,10.90
2018,09,14,07,59,11.00
2018,09,14,08,00,11.00
2018,09,14,08,01,11.00
2018,09,14,08,02,11.00
2018,09,14,08,03,11.10
2018,09,14,08,04,11.00
2018,09,14,08,05,11.00
2018,09,14,08,06,11.00
2018,09,14,08,07,11.00
2018,09,14,08,08,11.00
2018,09,14,08,09,11.00
2018,09,14,08,10,11.00
2018,09,14,08,11,10.90
2018,09,14,08,12,10.90
2018,09,14,08,13,10.90
2018,09,14,08,14,10.90
2018,09,14,08,15,10.90
2018,09,14,08,16,11.00
2018,09,14,08,17,11.00
2018,09,14,08,18,11.00
2018,09,14,08,19,10.90
2018,09,14,08,20,11.00
2018,09,14,08,21,11.00
2018,09,14,08,22,10.90
2018,09,14,08,23,10.90
2018,09,14,08,24,10.90
2018,09,14,08,25,11.00
2018,09,14,08,26,10.90
2018,09,14,08,27,11.00
2018,09,14,08,28,11.00
2018,09,14,08,29,11.00
2018,09,14,08,30,11.00
2018,09,14,08,31,11.00
2018,09,14,08,32,11.00
2018,09,14,08,33,11.00
2018,09,14,08,34,11.00
2018,09,14,08,35,11.00
2018,09,14,08,36,11.10
2018,09,14,08,37,11.10
2018,09,14,08,38,11.20
2018,09,14,08,39,11.20
2018,09,14,08,40,11.20
2018,09,14,08,41,11.20
2018,09,14,08,42,11.20
2018,09,14,08,43,11.20
2018,09,14,08,44,11.20
2018,09,14,08,45,11.20
2018,09,14,08,46,11.20
2018,09,14,08,47,11.20
2018,09,14,08,48,11.30
2018,09,14,08,49,11.30
2018,09,14,08,50,11.30
2018,09,14,08,51,11.30
2018,09,14,08,52,11.30
2018,09,14,08,53,11.30
2018,09,14,08,54,11.30
2018,09,14,08,55,11.30
2018,09,14,08,56,11.40
2018,09,14,08,57,11.40
2018,09,14,08,58,11.40
2018,09,14,08,59,11.40
2018,09,14,09,00,11.40
2018,09,14,09,01,11.40
2018,09,14,09,02,11.40
2018,09,14,09,03,11.40
2018,09,14,09,04,11.40
2018,09,14,09,05,11.40
2018,09,14,09,06,11.50
2018,09,14,09,07,11.50
2018,09,14,09,08,11.50
2018,09,14,09,09,11.50
2018,09,14,09,10,11.60
2018,09,14,09,11,11.60
2018,09,14,09,12,11.60
2018,09,14,09,13,11.60
2018,09,14,09,14,11.70
2018,09,14,09,15,11.70
2018,09,14,09,16,11.70
2018,09,14,09,17,11.70
2018,09,14,09,18,11.70
2018,09,14,09,19,11.70
2018,09,14,09,20,11.80
2018,09,14,09,21,11.80
2018,09,14,09,22,11.80
2018,09,14,09,23,11.80
2018,09,14,09,24,11.80
2018,09,14,09,25,11.80
2018,09,14,09,26,11.80
2018,09,14,09,27,11.90
2018,09,14,09,28,11.90
2018,09,14,09,29,11.90
2018,09,14,09,30,12.00
2018,09,14,09,31,12.00
2018,09,14,09,32,12.10
2018,09,14,09,33,12.10
2018,09,14,09,34,12.10
2018,09,14,09,35,12.20
2018,09,14,09,36,12.20
2018,09,14,09,37,12.30
2018,09,14,09,38,12.30
2018,09,14,09,39,12.30
2018,09,14,09,40,12.30
2018,09,14,09,41,12.40
2018,09,14,09,42,12.40
2018,09,14,09,43,12.40
2018,09,14,09,44,12.40
2018,09,14,09,45,12.40
2018,09,14,09,46,12.40
2018,09,14,09,47,12.50
2018,09,14,09,48,12.50
2018,09,14,09,49,12.50
2018,09,14,09,50,12.60
2018,09,14,09,51,12.60
2018,09,14,09,52,12.60
2018,09,14,09,53,12.70
2018,09,14,09,54,12.70
2018,09,14,09,55,12.70
2018,09,14,09,56,12.80
2018,09,14,09,57,12.80
2018,09,14,09,58,12.80
2018,09,14,09,59,12.80
2018,09,14,10,00,12.80
2018,09,14,10,01,12.90
2018,09,14,10,02,12.90
2018,09,14,10,03,12.90
2018,09,14,10,04,12.90
2018,09,14,10,05,12.90
2018,09,14,10,06,12.90
2018,09,14,10,07,13.00
2018,09,14,10,08,13.00
2018,09,14,10,09,13.00
2018,09,14,10,10,13.00
2018,09,14,10,11,13.00
2018,09,14,10,12,13.10
2018,09,14,10,13,13.10
2018,09,14,10,14,13.10
2018,09,14,10,15,13.10
2018,09,14,10,16,13.10
2018,09,14,10,17,13.10
2018,09,14,10,18,13.10
2018,09,14,10,19,13.10
2018,09,14,10,20,13.10
2018,09,14,10,21,13.20
2018,09,14,10,22,13.10
2018,09,14,10,23,13.20
2018,09,14,10,24,13.20
2018,09,14,10,25,13.20
2018,09,14,10,26,13.20
2018,09,14,10,27,13.20
2018,09,14,10,28,13.20
2018,09,14,10,29,13.20
2018,09,14,10,30,13.20
2018,09,14,10,31,13.20
2018,09,14,10,32,13.20
2018,09,14,10,33,13.20
2018,09,14,10,34,13.20
2018,09,14,10,35,13.20
2018,09,14,10,36,13.20
2018,09,14,10,37,13.30
2018,09,14,10,38,13.30
2018,09,14,10,39,13.30
2018,09,14,10,40,13.30
2018,09,14,10,41,13.30
2018,09,14,10,42,13.30
2018,09,14,10,43,13.40
2018,09,14,10,44,13.40
2018,09,14,10,45,13.40
2018,09,14,10,46,13.50
2018,09,14,10,47,13.50
2018,09,14,10,48,13.50
2018,09,14,10,49,13.60
2018,09,14,10,50,13.60
2018,09,14,10,51,13.60
2018,09,14,10,52,13.70
2018,09,14,10,53,13.70
2018,09,14,10,54,13.70
2018,09,14,10,55,13.70
2018,09,14,10,56,13.70
2018,09,14,10,57,13.80
2018,09,14,10,58,13.80
2018,09,14,10,59,13.80
2018,09,14,11,00,13.80
2018,09,14,11,01,13.90
2018,09,14,11,02,13.90
2018,09,14,11,03,13.90
2018,09,14,11,04,13.90
2018,09,14,11,05,13.90
2018,09,14,11,06,13.90
2018,09,14,11,07,14.00
2018,09,14,11,08,14.00
2018,09,14,11,09,14.10
2018,09,14,11,10,14.10
2018,09,14,11,11,14.10
2018,09,14,11,12,14.10
2018,09,14,11,13,14.10
2018,09,14,11,14,14.10
2018,09,14,11,15,14.10
2018,09,14,11,16,14.10
2018,09,14,11,17,14.20
2018,09,14,11,18,14.20
2018,09,14,11,19,14.20
2018,09,14,11,20,14.20
2018,09,14,11,21,14.20
2018,09,14,11,22,14.20
2018,09,14,11,23,14.20
2018,09,14,11,24,14.20
2018,09,14,11,25,14.20
2018,09,14,11,26,14.20
2018,09,14,11,27,14.20
2018,09,14,11,28,14.30
2018,09,14,11,29,14.30
2018,09,14,11,30,14.30
2018,09,14,11,31,14.30
2018,09,14,11,32,14.30
2018,09,14,11,33,14.30
2018,09,14,11,34,14.30
2018,09,14,11,35,14.30
2018,09,14,11,36,14.30
2018,09,14,11,37,14.30
2018,09,14,11,38,14.30
2018,09,14,11,39,14.30
2018,09,14,11,40,14.20
2018,09,14,11,41,14.20
2018,09,14,11,42,14.20
2018,09,14,11,43,14.20
2018,09,14,11,44,14.10
2018,09,14,11,45,14.10
2018,09,14,11,46,14.10
2018,09,14,11,47,14.10
2018,09,14,11,48,14.10
2018,09,14,11,49,14.10
2018,09,14,11,50,14.10
2018,09,14,11,51,14.10
2018,09,14,11,52,14.10
2018,09,14,11,53,14.00
2018,09,14,11,54,14.00
2018,09,14,11,55,14.00
2018,09,14,11,56,13.90
2018,09,14,11,57,13.90
2018,09,14,11,58,13.90
2018,09,14,11,59,13.90
2018,09,14,12,00,13.90
2018,09,14,12,01,13.80
2018,09,14,12,02,13.80
2018,09,14,12,03,13.80
2018,09,14,12,04,13.80
2018,09,14,12,05,13.90
2018,09,14,12,06,13.90
2018,09,14,12,07,13.90
2018,09,14,12,08,13.90
2018,09,14,12,09,13.90
2018,09,14,12,10,13.90
2018,09,14,12,11,13.90
2018,09,14,12,12,13.90
2018,09,14,12,13,13.90
2018,09,14,12,14,13.90
2018,09,14,12,15,13.90
2018,09,14,12,16,13.90
2018,09,14,12,17,13.90
2018,09,14,12,18,14.00
2018,09,14,12,19,14.00
2018,09,14,12,20,14.00
2018,09,14,12,21,14.10
2018,09,14,12,22,14.10
2018,09,14,12,23,14.10
2018,09,14,12,24,14.10
2018,09,14,12,25,14.10
2018,09,14,12,26,14.10
2018,09,14,12,27,14.10
2018,09,14,12,28,14.10
2018,09,14,12,29,14.10
2018,09,14,12,30,14.10
2018,09,14,12,31,14.00
2018,09,14,12,32,14.00
2018,09,14,12,33,14.10
2018,09,14,12,34,14.10
2018,09,14,12,35,14.10
2018,09,14,12,36,14.10
2018,09,14,12,37,14.10
2018,09,14,12,38,14.10
2018,09,14,12,39,14.20
2018,09,14,12,40,14.20
2018,09,14,12,41,14.20
2018,09,14,12,42,14.20
2018,09,14,12,43,14.30
2018,09,14,12,44,14.30
2018,09,14,12,45,14.30
2018,09,14,12,46,14.30
2018,09,14,12,47,14.30
2018,09,14,12,48,14.30
2018,09,14,12,49,14.30
2018,09,14,12,50,14.30
2018,09,14,12,51,14.30
2018,09,14,12,52,14.30
2018,09,14,12,53,14.30
2018,09,14,12,54,14.40
2018,09,14,12,55,14.40
2018,09,14,12,56,14.40
2018,09,14,12,57,14.40
2018,09,14,12,58,14.50
2018,09,14,12,59,14.50
2018,09,14,13,00,14.50
2018,09,14,13,01,14.50
2018,09,14,13,02,14.60
2018,09,14,13,03,14.60
2018,09,14,13,04,14.60
2018,09,14,13,05,14.60
2018,09,14,13,06,14.60
2018,09,14,13,07,14.60
2018,09,14,13,08,14.60
2018,09,14,13,09,14.60
2018,09,14,13,10,14.60
2018,09,14,13,11,14.70
2018,09,14,13,12,14.70
2018,09,14,13,13,14.70
2018,09,14,13,14,14.70
2018,09,14,13,15,14.70
2018,09,14,13,16,14.70
2018,09,14,13,17,14.70
2018,09,14,13,18,14.70
2018,09,14,13,19,14.80
2018,09,14,13,20,14.80
2018,09,14,13,21,14.80
2018,09,14,13,22,14.80
2018,09,14,13,23,14.80
2018,09,14,13,24,14.80
2018,09,14,13,25,14.80
2018,09,14,13,26,14.90
2018,09,14,13,27,14.90
2018,09,14,13,28,14.90
2018,09,14,13,29,14.90
2018,09,14,13,30,14.90
2018,09,14,13,31,14.90
2018,09,14,13,32,14.90
2018,09,14,13,33,14.90
2018,09,14,13,34,14.90
2018,09,14,13,35,14.90
2018,09,14,13,36,14.90
2018,09,14,13,37,14.90
2018,09,14,13,38,14.90
2018,09,14,13,39,15.00
2018,09,14,13,40,15.00
2018,09,14,13,41,15.00
2018,09,14,13,42,15.00
2018,09,14,13,43,14.90
2018,09,14,13,44,14.90
2018,09,14,13,45,15.00
2018,09,14,13,46,15.00
2018,09,14,13,47,15.00
2018,09,14,13,48,15.00
2018,09,14,13,49,15.00
2018,09,14,13,50,15.00
2018,09,14,13,51,15.00
2018,09,14,13,52,15.00
2018,09,14,13,53,15.00
2018,09,14,13,54,15.00
2018,09,14,13,55,15.00
2018,09,14,13,56,15.10
2018,09,14,13,57,15.10
2018,09,14,13,58,15.10
2018,09,14,13,59,15.10
2018,09,14,14,00,15.10
2018,09,14,14,01,15.10
2018,09,14,14,02,15.10
2018,09,14,14,03,15.20
2018,09,14,14,04,15.20
2018,09,14,14,05,15.20
2018,09,14,14,06,15.20
2018,09,14,14,07,15.10
2018,09,14,14,08,15.10
2018,09,14,14,09,15.10
2018,09,14,14,10,15.10
2018,09,14,14,11,15.00
2018,09,14,14,12,15.00
2018,09,14,14,13,15.00
2018,09,14,14,14,15.00
2018,09,14,14,15,15.00
2018,09,14,14,16,15.00
2018,09,14,14,17,14.90
2018,09,14,14,18,14.90
2018,09,14,14,19,14.90
2018,09,14,14,20,14.90
2018,09,14,14,21,14.90
2018,09,14,14,22,14.90
2018,09,14,14,23,14.90
2018,09,14,14,24,14.90
2018,09,14,14,25,14.90
2018,09,14,14,26,14.80
2018,09,14,14,27,14.80
2018,09,14,14,28,14.80
2018,09,14,14,29,14.80
2018,09,14,14,30,14.90
2018,09,14,14,31,14.90
2018,09,14,14,32,14.90
2018,09,14,14,33,14.80
2018,09,14,14,34,14.80
2018,09,14,14,35,14.80
2018,09,14,14,36,14.80
2018,09,14,14,37,14.80
2018,09,14,14,38,14.80
2018,09,14,14,39,14.80
2018,09,14,14,40,14.80
2018,09,14,14,41,14.80
2018,09,14,14,42,14.80
2018,09,14,14,43,14.80
2018,09,14,14,44,14.80
2018,09,14,14,45,14.80
2018,09,14,14,46,14.80
2018,09,14,14,47,14.80
2018,09,14,14,48,14.80
2018,09,14,14,49,14.70
2018,09,14,14,50,14.70
2018,09,14,14,51,14.60
2018,09,14,14,52,14.60
2018,09,14,14,53,14.60
2018,09,14,14,54,14.50
2018,09,14,14,55,14.40
2018,09,14,14,56,14.40
2018,09,14,14,57,14.30
2018,09,14,14,58,14.20
2018,09,14,14,59,14.10
2018,09,14,15,00,14.00
2018,09,14,15,01,14.00
2018,09,14,15,02,13.90
2018,09,14,15,03,13.90
2018,09,14,15,04,13.80
2018,09,14,15,05,13.80
2018,09,14,15,06,13.80
2018,09,14,15,07,13.80
2018,09,14,15,08,13.80
2018,09,14,15,09,13.80
2018,09,14,15,10,13.80
2018,09,14,15,11,13.80
2018,09,14,15,12,13.80
2018,09,14,15,13,13.80
2018,09,14,15,14,13.80
2018,09,14,15,15,13.80
2018,09,14,15,16,13.80
2018,09,14,15,17,13.80
2018,09,14,15,18,13.80
2018,09,14,15,19,13.70
2018,09,14,15,20,13.70
2018,09,14,15,21,13.60
2018,09,14,15,22,13.60
2018,09,14,15,23,13.60
2018,09,14,15,24,13.60
2018,09,14,15,25,13.60
2018,09,14,15,26,13.60
2018,09,14,15,27,13.50
2018,09,14,15,28,13.50
2018,09,14,15,29,13.40
2018,09,14,15,30,13.40
2018,09,14,15,31,13.40
2018,09,14,15,32,13.40
2018,09,14,15,33,13.30
2018,09,14,15,34,13.30
2018,09,14,15,35,13.30
2018,09,14,15,36,13.20
2018,09,14,15,37,13.20
2018,09,14,15,38,13.20
2018,09,14,15,39,13.20
2018,09,14,15,40,13.20
2018,09,14,15,41,13.20
2018,09,14,15,42,13.10
2018,09,14,15,43,13.10
2018,09,14,15,44,13.10
2018,09,14,15,45,13.10
2018,09,14,15,46,13.10
2018,09,14,15,47,13.10
2018,09,14,15,48,13.20
2018,09,14,15,49,13.20
2018,09,14,15,50,13.20
2018,09,14,15,51,13.20
2018,09,14,15,52,13.20
2018,09,14,15,53,13.20
2018,09,14,15,54,13.20
2018,09,14,15,55,13.20
2018,09,14,15,56,13.20
2018,09,14,15,57,13.20
2018,09,14,15,58,13.20
2018,09,14,15,59,13.20
2018,09,14,16,00,13.20
2018,09,14,16,01,13.30
2018,09,14,16,02,13.30
2018,09,14,16,03,13.30
2018,09,14,16,04,13.30
2018,09,14,16,05,13.30
2018,09,14,16,06,13.30
2018,09,14,16,07,13.30
2018,09,14,16,08,13.30
2018,09,14,16,09,13.30
2018,09,14,16,10,13.30
2018,09,14,16,11,13.30
2018,09,14,16,12,13.30
2018,09,14,16,13,13.30
2018,09,14,16,14,13.30
2018,09,14,16,15,13.30
2018,09,14,16,16,13.30
2018,09,14,16,17,13.30
2018,09,14,16,18,13.30
2018,09,14,16,19,13.30
2018,09,14,16,20,13.30
2018,09,14,16,21,13.30
2018,09,14,16,22,13.30
2018,09,14,16,23,13.30
2018,09,14,16,24,13.30
2018,09,14,16,25,13.30
2018,09,14,16,26,13.40
2018,09,14,16,27,13.40
2018,09,14,16,28,13.40
2018,09,14,16,29,13.40
2018,09,14,16,30,13.40
2018,09,14,16,31,13.40
2018,09,14,16,32,13.40
2018,09,14,16,33,13.40
2018,09,14,16,34,13.40
2018,09,14,16,35,13.40
2018,09,14,16,36,13.40
2018,09,14,16,37,13.40
2018,09,14,16,38,13.50
2018,09,14,16,39,13.50
2018,09,14,16,40,13.50
2018,09,14,16,41,13.50
2018,09,14,16,42,13.50
2018,09,14,16,43,13.50
2018,09,14,16,44,13.50
2018,09,14,16,45,13.50
2018,09,14,16,46,13.50
2018,09,14,16,47,13.50
2018,09,14,16,48,13.50
2018,09,14,16,49,13.60
2018,09,14,16,50,13.60
2018,09,14,16,51,13.60
2018,09,14,16,52,13.60
2018,09,14,16,53,13.60
2018,09,14,16,54,13.70
2018,09,14,16,55,13.70
2018,09,14,16,56,13.70
2018,09,14,16,57,13.80
2018,09,14,16,58,13.80
2018,09,14,16,59,13.80
2018,09,14,17,00,13.80
2018,09,14,17,01,13.80
2018,09,14,17,02,13.80
2018,09,14,17,03,13.80
2018,09,14,17,04,13.80
2018,09,14,17,05,13.80
2018,09,14,17,06,13.80
2018,09,14,17,07,13.80
2018,09,14,17,08,13.80
2018,09,14,17,09,13.80
2018,09,14,17,10,13.80
2018,09,14,17,11,13.80
2018,09,14,17,12,13.80
2018,09,14,17,13,13.80
2018,09,14,17,14,13.80
2018,09,14,17,15,13.80
2018,09,14,17,16,13.80
2018,09,14,17,17,13.80
2018,09,14,17,18,13.80
2018,09,14,17,19,13.80
2018,09,14,17,20,13.80
2018,09,14,17,21,13.90
2018,09,14,17,22,13.80
2018,09,14,17,23,13.80
2018,09,14,17,24,13.80
2018,09,14,17,25,13.90
2018,09,14,17,26,13.90
2018,09,14,17,27,13.90
2018,09,14,17,28,13.90
2018,09,14,17,29,13.90
2018,09,14,17,30,13.90
2018,09,14,17,31,13.90
2018,09,14,17,32,13.90
2018,09,14,17,33,13.90
2018,09,14,17,34,13.90
2018,09,14,17,35,14.00
2018,09,14,17,36,14.00
2018,09,14,17,37,14.00
2018,09,14,17,38,14.00
2018,09,14,17,39,14.00
2018,09,14,17,40,14.00
2018,09,14,17,41,14.00
2018,09,14,17,42,14.00
2018,09,14,17,43,14.00
2018,09,14,17,44,13.90
2018,09,14,17,45,13.90
2018,09,14,17,46,13.90
2018,09,14,17,47,13.90
2018,09,14,17,48,13.80
2018,09,14,17,49,13.80
2018,09,14,17,50,13.80
2018,09,14,17,51,13.80
2018,09,14,17,52,13.70
2018,09,14,17,53,13.70
2018,09,14,17,54,13.70
2018,09,14,17,55,13.70
2018,09,14,17,56,13.70
2018,09,14,17,57,13.60
2018,09,14,17,58,13.60
2018,09,14,17,59,13.60
2018,09,14,18,00,13.50
2018,09,14,18,01,13.50
2018,09,14,18,02,13.40
2018,09,14,18,03,13.40
2018,09,14,18,04,13.40
2018,09,14,18,05,13.30
2018,09,14,18,06,13.30
2018,09,14,18,07,13.30
2018,09,14,18,08,13.30
2018,09,14,18,09,13.20
2018,09,14,18,10,13.20
2018,09,14,18,11,13.20
2018,09,14,18,12,13.20
2018,09,14,18,13,13.20
2018,09,14,18,14,13.20
2018,09,14,18,15,13.20
2018,09,14,18,16,13.20
2018,09,14,18,17,13.20
2018,09,14,18,18,13.20
2018,09,14,18,19,13.20
2018,09,14,18,20,13.20
2018,09,14,18,21,13.20
2018,09,14,18,22,13.20
2018,09,14,18,23,13.20
2018,09,14,18,24,13.20
2018,09,14,18,25,13.20
2018,09,14,18,26,13.20
2018,09,14,18,27,13.20
2018,09,14,18,28,13.20
2018,09,14,18,29,13.20
2018,09,14,18,30,13.20
2018,09,14,18,31,13.20
2018,09,14,18,32,13.20
2018,09,14,18,33,13.20
2018,09,14,18,34,13.20
2018,09,14,18,35,13.20
2018,09,14,18,36,13.20
2018,09,14,18,37,13.20
2018,09,14,18,38,13.20
2018,09,14,18,39,13.20
2018,09,14,18,40,13.20
2018,09,14,18,41,13.20
2018,09,14,18,42,13.20
2018,09,14,18,43,13.20
2018,09,14,18,44,13.20
2018,09,14,18,45,13.20
2018,09,14,18,46,13.20
2018,09,14,18,47,13.20
2018,09,14,18,48,13.30
2018,09,14,18,49,13.30
2018,09,14,18,50,13.30
2018,09,14,18,51,13.30
2018,09,14,18,52,13.30
2018,09,14,18,53,13.30
2018,09,14,18,54,13.30
2018,09,14,18,55,13.30
2018,09,14,18,56,13.30
2018,09,14,18,57,13.30
2018,09,14,18,58,13.30
2018,09,14,18,59,13.30
2018,09,14,19,00,13.30
2018,09,14,19,01,13.30
2018,09,14,19,02,13.30
2018,09,14,19,03,13.30
2018,09,14,19,04,13.30
2018,09,14,19,05,13.30
2018,09,14,19,06,13.30
2018,09,14,19,07,13.30
2018,09,14,19,08,13.30
2018,09,14,19,09,13.30
2018,09,14,19,10,13.30
2018,09,14,19,11,13.30
2018,09,14,19,12,13.30
2018,09,14,19,13,13.30
2018,09,14,19,14,13.30
2018,09,14,19,15,13.30
2018,09,14,19,16,13.30
2018,09,14,19,17,13.30
2018,09,14,19,18,13.30
2018,09,14,19,19,13.30
2018,09,14,19,20,13.30
2018,09,14,19,21,13.30
2018,09,14,19,22,13.30
2018,09,14,19,23,13.30
2018,09,14,19,24,13.30
2018,09,14,19,25,13.30
2018,09,14,19,26,13.30
2018,09,14,19,27,13.30
2018,09,14,19,28,13.30
2018,09,14,19,29,13.30
2018,09,14,19,30,13.30
2018,09,14,19,31,13.30
2018,09,14,19,32,13.30
2018,09,14,19,33,13.40
2018,09,14,19,34,13.40
2018,09,14,19,35,13.40
2018,09,14,19,36,13.40
2018,09,14,19,37,13.40
2018,09,14,19,38,13.40
2018,09,14,19,39,13.40
2018,09,14,19,40,13.50
2018,09,14,19,41,13.50
2018,09,14,19,42,13.50
2018,09,14,19,43,13.50
2018,09,14,19,44,13.60
2018,09,14,19,45,13.60
2018,09,14,19,46,13.60
2018,09,14,19,47,13.60
2018,09,14,19,48,13.60
2018,09,14,19,49,13.60
2018,09,14,19,50,13.60
2018,09,14,19,51,13.60
2018,09,14,19,52,13.60
2018,09,14,19,53,13.60